| time (UTC) | temp C | wind direction | speed KPH | gust KPH | rain 1hr cm | rain 24hr cm | rain mn cm | humidity % | barometer mb |
| 20260905193612 | 35 | 103 | 12.9 | 20.9 | 0.00 | 0.00 | 0.00 | 45 | 943.7 |
| 20260905192849 | 35 | 76 | 11.3 | 22.5 | 0.00 | 0.00 | 0.00 | 42 | 943.8 |
| 20260905192349 | 35 | 115 | 11.3 | 22.5 | 0.00 | 0.00 | 0.00 | 46 | 943.7 |
| 20260905192108 | 35 | 80 | 8.0 | 20.9 | 0.00 | 0.00 | 0.00 | 46 | 943.8 |
| 20260905191349 | 35 | 80 | 4.8 | 20.9 | 0.00 | 0.00 | 0.00 | 43 | 943.9 |
| 20260905190346 | 35 | 105 | 8.0 | 20.9 | 0.00 | 0.00 | 0.00 | 43 | 944.0 |
| 20260905185846 | 35 | 126 | 8.0 | 20.9 | 0.00 | 0.00 | 0.00 | 44 | 944.1 |
| 20260905185347 | 35 | 28 | 6.4 | 16.1 | 0.00 | 0.00 | 0.00 | 46 | 944.2 |
| 20260905185108 | 35 | 124 | 8.0 | 17.7 | 0.00 | 0.00 | 0.00 | 45 | 944.3 |
| 20260905184341 | 35 | 115 | 9.7 | 19.3 | 0.00 | 0.00 | 0.00 | 45 | 944.4 |
| 20260905183835 | 35 | 67 | 9.7 | 19.3 | 0.00 | 0.00 | 0.00 | 44 | 944.5 |
| 20260905183329 | 35 | 87 | 8.0 | 17.7 | 0.00 | 0.00 | 0.00 | 46 | 944.5 |
| 20260905182824 | 35 | 128 | 11.3 | 17.7 | 0.00 | 0.00 | 0.00 | 45 | 944.6 |
| 20260905182540 | 35 | 122 | 11.3 | 19.3 | 0.00 | 0.00 | 0.00 | 47 | 944.6 |
| 20260905181811 | 35 | 121 | 8.0 | 19.3 | 0.00 | 0.00 | 0.00 | 45 | 944.6 |
| 20260905181305 | 34 | 166 | 6.4 | 14.5 | 0.00 | 0.00 | 0.00 | 47 | 944.7 |
| 20260905180800 | 34 | 193 | 6.4 | 14.5 | 0.00 | 0.00 | 0.00 | 48 | 944.7 |
| 20260905180254 | 34 | 155 | 8.0 | 16.1 | 0.00 | 0.00 | 0.00 | 49 | 944.8 |
| 20260905175748 | 33 | 200 | 6.4 | 16.1 | 0.00 | 0.00 | 0.00 | 50 | 944.9 |
| 20260905175241 | 33 | 307 | 4.8 | 11.3 | 0.00 | 0.00 | 0.00 | 53 | 944.9 |
| 20260905174735 | 32 | 22 | 6.4 | 14.5 | 0.00 | 0.00 | 0.00 | 51 | 945.0 |
| 20260905174447 | 33 | 142 | 8.0 | 14.5 | 0.00 | 0.00 | 0.00 | 49 | 945.2 |
| 20260905173723 | 33 | 91 | 6.4 | 16.1 | 0.00 | 0.00 | 0.00 | 50 | 945.2 |
| 20260905173222 | 33 | 113 | 8.0 | 17.7 | 0.00 | 0.00 | 0.00 | 50 | 945.3 |
| 20260905172723 | 33 | 267 | 6.4 | 17.7 | 0.00 | 0.00 | 0.00 | 51 | 945.3 |
| 20260905172222 | 33 | 125 | 3.2 | 12.9 | 0.00 | 0.00 | 0.00 | 53 | 945.3 |
| 20260905171720 | 33 | 136 | 3.2 | 12.9 | 0.00 | 0.00 | 0.00 | 53 | 945.4 |
| 20260905171220 | 32 | 115 | 4.8 | 12.9 | 0.00 | 0.00 | 0.00 | 55 | 945.5 |
| 20260905170720 | 32 | 177 | 6.4 | 16.1 | 0.00 | 0.00 | 0.00 | 55 | 945.5 |
| 20260905170220 | 32 | 221 | 8.0 | 16.1 | 0.00 | 0.00 | 0.00 | 56 | 945.6 |
| 20260905165721 | 32 | 194 | 8.0 | 16.1 | 0.00 | 0.00 | 0.00 | 56 | 945.6 |
| 20260905165220 | 32 | 143 | 8.0 | 14.5 | 0.00 | 0.00 | 0.00 | 55 | 945.6 |
| 20260905164946 | 32 | 163 | 8.0 | 16.1 | 0.00 | 0.00 | 0.00 | 56 | 945.6 |
| 20260905164221 | 32 | 175 | 6.4 | 16.1 | 0.00 | 0.00 | 0.00 | 56 | 945.6 |
| 20260905163939 | 32 | 146 | 4.8 | 16.1 | 0.00 | 0.00 | 0.00 | 56 | 945.6 |
| 20260905163221 | 32 | 246 | 6.4 | 14.5 | 0.00 | 0.00 | 0.00 | 57 | 945.6 |
| 20260905162721 | 32 | 189 | 6.4 | 14.5 | 0.00 | 0.00 | 0.00 | 57 | 945.6 |
| 20260905162219 | 31 | 171 | 4.8 | 14.5 | 0.00 | 0.00 | 0.00 | 58 | 945.7 |
| 20260905161718 | 31 | 195 | 6.4 | 14.5 | 0.00 | 0.00 | 0.00 | 61 | 945.7 |
| 20260905161217 | 31 | 153 | 8.0 | 17.7 | 0.00 | 0.00 | 0.00 | 60 | 945.6 |
| 20260905160712 | 31 | 136 | 8.0 | 17.7 | 0.00 | 0.00 | 0.00 | 59 | 945.7 |
| 20260905160206 | 31 | 156 | 6.4 | 16.1 | 0.00 | 0.00 | 0.00 | 60 | 945.7 |
| 20260905155700 | 30 | 187 | 9.7 | 16.1 | 0.00 | 0.00 | 0.00 | 61 | 945.7 |
| 20260905155154 | 30 | 173 | 8.0 | 16.1 | 0.00 | 0.00 | 0.00 | 61 | 945.7 |
| 20260905154142 | 30 | 235 | 6.4 | 14.5 | 0.00 | 0.00 | 0.00 | 63 | 945.7 |
| 20260905153636 | 30 | 231 | 6.4 | 16.1 | 0.00 | 0.00 | 0.00 | 63 | 945.7 |
| 20260905153130 | 30 | 188 | 6.4 | 16.1 | 0.00 | 0.00 | 0.00 | 63 | 945.8 |
| 20260905152624 | 30 | 261 | 8.0 | 19.3 | 0.00 | 0.00 | 0.00 | 63 | 945.7 |
| 20260905152118 | 29 | 200 | 8.0 | 19.3 | 0.00 | 0.00 | 0.00 | 63 | 945.7 |
| 20260905151612 | 29 | 223 | 8.0 | 20.9 | 0.00 | 0.00 | 0.00 | 64 | 945.8 |
| 20260905151106 | 29 | 205 | 8.0 | 20.9 | 0.00 | 0.00 | 0.00 | 64 | 945.8 |
| 20260905150559 | 29 | 157 | 8.0 | 16.1 | 0.00 | 0.00 | 0.00 | 63 | 945.7 |
| 20260905150053 | 28 | 180 | 9.7 | 17.7 | 0.00 | 0.00 | 0.00 | 65 | 945.7 |
| 20260905145547 | 28 | 197 | 9.7 | 17.7 | 0.00 | 0.00 | 0.00 | 65 | 945.7 |
| 20260905145041 | 28 | 153 | 8.0 | 16.1 | 0.00 | 0.00 | 0.00 | 66 | 945.7 |
| 20260905144535 | 28 | 153 | 6.4 | 16.1 | 0.00 | 0.00 | 0.00 | 68 | 945.7 |
| 20260905144029 | 27 | 136 | 8.0 | 14.5 | 0.00 | 0.00 | 0.00 | 67 | 945.7 |
| 20260905143524 | 27 | 113 | 8.0 | 14.5 | 0.00 | 0.00 | 0.00 | 68 | 945.7 |
| 20260905143018 | 27 | 148 | 8.0 | 16.1 | 0.00 | 0.00 | 0.00 | 69 | 945.7 |
| 20260905142512 | 27 | 194 | 8.0 | 16.1 | 0.00 | 0.00 | 0.00 | 69 | 945.7 |
| 20260905142006 | 26 | 160 | 8.0 | 16.1 | 0.00 | 0.00 | 0.00 | 69 | 945.7 |
| 20260905141724 | 26 | 155 | 9.7 | 17.7 | 0.00 | 0.00 | 0.00 | 71 | 945.7 |
| 20260905140954 | 26 | 153 | 9.7 | 17.7 | 0.00 | 0.00 | 0.00 | 71 | 945.6 |
| 20260905140448 | 26 | 163 | 8.0 | 16.1 | 0.00 | 0.00 | 0.00 | 72 | 945.6 |
| 20260905135942 | 26 | 140 | 6.4 | 16.1 | 0.00 | 0.00 | 0.00 | 73 | 945.6 |
| 20260905134930 | 25 | 136 | 9.7 | 16.1 | 0.00 | 0.00 | 0.00 | 75 | 945.5 |
| 20260905134424 | 25 | 126 | 8.0 | 16.1 | 0.00 | 0.00 | 0.00 | 75 | 945.5 |
| 20260905133917 | 25 | 162 | 8.0 | 16.1 | 0.00 | 0.00 | 0.00 | 76 | 945.6 |
| 20260905133411 | 25 | 150 | 8.0 | 14.5 | 0.00 | 0.00 | 0.00 | 77 | 945.5 |
| 20260905133131 | 24 | 101 | 6.4 | 12.9 | 0.00 | 0.00 | 0.00 | 78 | 945.5 |
| 20260905132400 | 24 | 145 | 4.8 | 11.3 | 0.00 | 0.00 | 0.00 | 79 | 945.5 |
| 20260905131900 | 23 | 98 | 4.8 | 11.3 | 0.00 | 0.00 | 0.00 | 79 | 945.5 |
| 20260905131358 | 23 | 114 | 4.8 | 11.3 | 0.00 | 0.00 | 0.00 | 80 | 945.5 |
| 20260905131116 | 23 | 108 | 6.4 | 11.3 | 0.00 | 0.00 | 0.00 | 81 | 945.3 |
| 20260905130119 | 22 | 107 | 4.8 | 9.7 | 0.00 | 0.00 | 0.00 | 83 | 945.2 |
| 20260905125355 | 22 | 105 | 3.2 | 9.7 | 0.00 | 0.00 | 0.00 | 84 | 945.2 |
| 20260905124855 | 21 | 101 | 3.2 | 6.4 | 0.00 | 0.00 | 0.00 | 85 | 945.2 |
| 20260905124356 | 21 | 114 | 3.2 | 4.8 | 0.00 | 0.00 | 0.00 | 85 | 945.1 |
| 20260905123856 | 21 | 113 | 1.6 | 4.8 | 0.00 | 0.00 | 0.00 | 85 | 945.0 |
| 20260905123354 | 21 | 113 | 1.6 | 4.8 | 0.00 | 0.00 | 0.00 | 84 | 945.0 |
| 20260905122853 | 21 | 113 | 1.6 | 4.8 | 0.00 | 0.00 | 0.00 | 84 | 944.9 |
| 20260905122354 | 21 | 109 | 0.0 | 0.0 | 0.00 | 0.00 | 0.00 | 85 | 944.8 |
| 20260905122113 | 22 | 67 | 0.0 | 0.0 | 0.00 | 0.00 | 0.00 | 84 | 944.8 |
| 20260905121614 | 22 | 67 | 0.0 | 0.0 | 0.00 | 0.00 | 0.00 | 82 | 944.7 |
| 20260905120852 | 22 | 67 | 0.0 | 4.8 | 0.00 | 0.00 | 0.00 | 82 | 944.6 |
| 20260905120350 | 22 | 67 | 3.2 | 6.4 | 0.00 | 0.00 | 0.00 | 82 | 944.6 |
| 20260905115846 | 22 | 101 | 3.2 | 6.4 | 0.00 | 0.00 | 0.00 | 82 | 944.5 |
| 20260905115609 | 22 | 107 | 4.8 | 6.4 | 0.00 | 0.00 | 0.00 | 82 | 944.4 |
| 20260905114846 | 22 | 110 | 3.2 | 6.4 | 0.00 | 0.00 | 0.00 | 83 | 944.5 |
| 20260905114346 | 22 | 123 | 1.6 | 6.4 | 0.00 | 0.00 | 0.00 | 83 | 944.6 |
| 20260905113846 | 22 | 107 | 1.6 | 4.8 | 0.00 | 0.00 | 0.00 | 83 | 944.6 |
| 20260905113345 | 22 | 107 | 3.2 | 6.4 | 0.00 | 0.00 | 0.00 | 83 | 944.6 |
| 20260905112846 | 22 | 102 | 3.2 | 6.4 | 0.00 | 0.00 | 0.00 | 82 | 944.6 |
| 20260905112346 | 22 | 110 | 4.8 | 6.4 | 0.00 | 0.00 | 0.00 | 82 | 944.6 |
| 20260905111846 | 22 | 114 | 4.8 | 6.4 | 0.00 | 0.00 | 0.00 | 82 | 944.7 |
| 20260905111341 | 22 | 112 | 3.2 | 6.4 | 0.00 | 0.00 | 0.00 | 82 | 944.7 |
| 20260905110842 | 22 | 116 | 1.6 | 6.4 | 0.00 | 0.00 | 0.00 | 82 | 944.8 |
| 20260905110342 | 22 | 105 | 0.0 | 0.0 | 0.00 | 0.00 | 0.00 | 82 | 944.7 |
| 20260905105842 | 22 | 109 | 0.0 | 0.0 | 0.00 | 0.00 | 0.00 | 81 | 944.8 |
| 20260905105341 | 22 | 93 | 0.0 | 3.2 | 0.00 | 0.00 | 0.00 | 81 | 944.7 |
| 20260905104843 | 22 | 93 | 1.6 | 4.8 | 0.00 | 0.00 | 0.00 | 79 | 944.7 |
| 20260905104607 | 22 | 93 | 3.2 | 4.8 | 0.00 | 0.00 | 0.00 | 79 | 944.7 |
| 20260905103843 | 22 | 93 | 3.2 | 4.8 | 0.00 | 0.00 | 0.00 | 79 | 944.6 |
| 20260905103343 | 22 | 93 | 1.6 | 4.8 | 0.00 | 0.00 | 0.00 | 79 | 944.7 |
| 20260905102836 | 23 | 93 | 1.6 | 4.8 | 0.00 | 0.00 | 0.00 | 79 | 944.6 |
| 20260905102557 | 23 | 107 | 3.2 | 4.8 | 0.00 | 0.00 | 0.00 | 79 | 944.7 |
| 20260905101824 | 23 | 102 | 3.2 | 4.8 | 0.00 | 0.00 | 0.00 | 79 | 944.6 |
| 20260905101318 | 23 | 113 | 3.2 | 6.4 | 0.00 | 0.00 | 0.00 | 78 | 944.6 |
| 20260905100812 | 23 | 111 | 3.2 | 6.4 | 0.00 | 0.00 | 0.00 | 78 | 944.6 |
| 20260905100306 | 23 | 129 | 4.8 | 6.4 | 0.00 | 0.00 | 0.00 | 78 | 944.5 |
| 20260905095800 | 23 | 136 | 3.2 | 9.7 | 0.00 | 0.00 | 0.00 | 78 | 944.5 |
| 20260905095254 | 23 | 125 | 4.8 | 9.7 | 0.00 | 0.00 | 0.00 | 78 | 944.5 |
| 20260905094748 | 23 | 126 | 4.8 | 9.7 | 0.00 | 0.00 | 0.00 | 78 | 944.6 |
| 20260905094242 | 23 | 101 | 4.8 | 9.7 | 0.00 | 0.00 | 0.00 | 79 | 944.6 |
| 20260905093736 | 23 | 136 | 3.2 | 8.0 | 0.00 | 0.00 | 0.00 | 78 | 944.6 |
| 20260905093230 | 23 | 126 | 1.6 | 4.8 | 0.00 | 0.00 | 0.00 | 78 | 944.7 |
| 20260905092724 | 23 | 148 | 1.6 | 4.8 | 0.00 | 0.00 | 0.00 | 77 | 944.7 |
| 20260905092218 | 23 | 144 | 1.6 | 4.8 | 0.00 | 0.00 | 0.00 | 77 | 944.7 |
| 20260905091713 | 23 | 133 | 3.2 | 6.4 | 0.00 | 0.00 | 0.00 | 76 | 944.7 |
| 20260905091207 | 23 | 139 | 3.2 | 6.4 | 0.00 | 0.00 | 0.00 | 76 | 944.7 |
| 20260905090700 | 23 | 126 | 1.6 | 6.4 | 0.00 | 0.00 | 0.00 | 76 | 944.7 |
| 20260905090154 | 23 | 137 | 0.0 | 0.0 | 0.00 | 0.00 | 0.00 | 75 | 944.7 |
| 20260905085648 | 24 | 132 | 0.0 | 0.0 | 0.00 | 0.00 | 0.00 | 74 | 944.6 |
| 20260905085142 | 24 | 116 | 1.6 | 9.7 | 0.00 | 0.00 | 0.00 | 73 | 944.7 |
| 20260905084636 | 24 | 128 | 4.8 | 9.7 | 0.00 | 0.00 | 0.00 | 73 | 944.7 |
| 20260905084130 | 24 | 108 | 6.4 | 11.3 | 0.00 | 0.00 | 0.00 | 73 | 944.6 |
| 20260905083624 | 24 | 115 | 6.4 | 11.3 | 0.00 | 0.00 | 0.00 | 73 | 944.5 |
| 20260905083118 | 24 | 110 | 4.8 | 11.3 | 0.00 | 0.00 | 0.00 | 73 | 944.5 |
| 20260905082612 | 24 | 90 | 3.2 | 9.7 | 0.00 | 0.00 | 0.00 | 73 | 944.5 |
| 20260905082106 | 24 | 119 | 1.6 | 9.7 | 0.00 | 0.00 | 0.00 | 73 | 944.5 |
| 20260905081600 | 24 | 137 | 3.2 | 9.7 | 0.00 | 0.00 | 0.00 | 72 | 944.4 |
| 20260905081054 | 24 | 134 | 4.8 | 11.3 | 0.00 | 0.00 | 0.00 | 72 | 944.4 |
| 20260905080548 | 24 | 138 | 6.4 | 12.9 | 0.00 | 0.00 | 0.00 | 72 | 944.4 |
| 20260905080042 | 24 | 139 | 6.4 | 16.1 | 0.00 | 0.00 | 0.00 | 72 | 944.4 |
| 20260905075535 | 24 | 160 | 6.4 | 16.1 | 0.00 | 0.00 | 0.00 | 73 | 944.5 |
| 20260905075031 | 24 | 152 | 4.8 | 11.3 | 0.00 | 0.00 | 0.00 | 73 | 944.5 |
| 20260905074523 | 24 | 130 | 4.8 | 9.7 | 0.00 | 0.00 | 0.00 | 73 | 944.5 |
| 20260905074019 | 24 | 94 | 4.8 | 9.7 | 0.00 | 0.00 | 0.00 | 72 | 944.4 |
| 20260905073512 | 24 | 111 | 4.8 | 6.4 | 0.00 | 0.00 | 0.00 | 72 | 944.5 |
| 20260905073006 | 24 | 111 | 4.8 | 6.4 | 0.00 | 0.00 | 0.00 | 72 | 944.4 |
| 20260905072501 | 24 | 111 | 4.8 | 6.4 | 0.00 | 0.00 | 0.00 | 72 | 944.4 |
| 20260905071954 | 24 | 101 | 4.8 | 6.4 | 0.00 | 0.00 | 0.00 | 72 | 944.4 |
| 20260905071717 | 24 | 135 | 4.8 | 6.4 | 0.00 | 0.00 | 0.00 | 72 | 944.5 |
| 20260905070942 | 24 | 111 | 4.8 | 8.0 | 0.00 | 0.00 | 0.00 | 72 | 944.5 |
| 20260905070656 | 24 | 112 | 4.8 | 8.0 | 0.00 | 0.00 | 0.00 | 71 | 944.6 |
| 20260905065930 | 25 | 120 | 4.8 | 8.0 | 0.00 | 0.00 | 0.00 | 71 | 944.6 |
| 20260905065424 | 25 | 150 | 3.2 | 8.0 | 0.00 | 0.00 | 0.00 | 71 | 944.7 |
| 20260905064919 | 25 | 143 | 4.8 | 9.7 | 0.00 | 0.00 | 0.00 | 70 | 944.6 |
| 20260905064412 | 25 | 128 | 4.8 | 11.3 | 0.00 | 0.00 | 0.00 | 70 | 944.6 |
| 20260905063906 | 25 | 101 | 4.8 | 11.3 | 0.00 | 0.00 | 0.00 | 70 | 944.6 |
| 20260905063401 | 25 | 127 | 3.2 | 6.4 | 0.00 | 0.00 | 0.00 | 70 | 944.6 |
| 20260905062854 | 25 | 134 | 3.2 | 4.8 | 0.00 | 0.00 | 0.00 | 69 | 944.6 |
| 20260905062348 | 25 | 132 | 3.2 | 8.0 | 0.00 | 0.00 | 0.00 | 68 | 944.7 |
| 20260905061842 | 25 | 144 | 4.8 | 8.0 | 0.00 | 0.00 | 0.00 | 68 | 944.6 |
| 20260905060830 | 25 | 121 | 6.4 | 11.3 | 0.00 | 0.00 | 0.00 | 67 | 944.6 |
| 20260905060324 | 25 | 131 | 6.4 | 12.9 | 0.00 | 0.00 | 0.00 | 67 | 944.5 |
| 20260905055818 | 25 | 118 | 6.4 | 12.9 | 0.00 | 0.00 | 0.00 | 67 | 944.5 |
| 20260905055533 | 25 | 96 | 6.4 | 11.3 | 0.00 | 0.00 | 0.00 | 66 | 944.5 |
| 20260905054806 | 25 | 127 | 6.4 | 11.3 | 0.00 | 0.00 | 0.00 | 66 | 944.4 |
| 20260905054300 | 25 | 123 | 6.4 | 11.3 | 0.00 | 0.00 | 0.00 | 65 | 944.4 |
| 20260905053755 | 25 | 130 | 6.4 | 12.9 | 0.00 | 0.00 | 0.00 | 65 | 944.3 |
| 20260905053248 | 26 | 108 | 6.4 | 12.9 | 0.00 | 0.00 | 0.00 | 65 | 944.4 |
| 20260905052742 | 26 | 96 | 6.4 | 11.3 | 0.00 | 0.00 | 0.00 | 65 | 944.4 |
| 20260905052236 | 26 | 103 | 6.4 | 12.9 | 0.00 | 0.00 | 0.00 | 64 | 944.4 |
| 20260905051735 | 26 | 117 | 8.0 | 12.9 | 0.00 | 0.00 | 0.00 | 64 | 944.4 |
| 20260905051233 | 26 | 109 | 6.4 | 12.9 | 0.00 | 0.00 | 0.00 | 64 | 944.5 |
| 20260905050733 | 26 | 119 | 8.0 | 12.9 | 0.00 | 0.00 | 0.00 | 64 | 944.4 |
| 20260905050233 | 26 | 104 | 6.4 | 11.3 | 0.00 | 0.00 | 0.00 | 64 | 944.4 |
| 20260905045952 | 26 | 114 | 6.4 | 11.3 | 0.00 | 0.00 | 0.00 | 64 | 944.4 |
| 20260905045451 | 26 | 124 | 6.4 | 11.3 | 0.00 | 0.00 | 0.00 | 65 | 944.4 |
| 20260905044728 | 26 | 132 | 4.8 | 11.3 | 0.00 | 0.00 | 0.00 | 64 | 944.4 |
| 20260905044453 | 26 | 132 | 3.2 | 8.0 | 0.00 | 0.00 | 0.00 | 65 | 944.4 |
| 20260905043726 | 26 | 158 | 3.2 | 8.0 | 0.00 | 0.00 | 0.00 | 65 | 944.4 |
| 20260905043226 | 26 | 143 | 3.2 | 6.4 | 0.00 | 0.00 | 0.00 | 64 | 944.4 |
| 20260905042950 | 26 | 211 | 3.2 | 6.4 | 0.00 | 0.00 | 0.00 | 63 | 944.4 |
| 20260905041725 | 26 | 132 | 4.8 | 9.7 | 0.00 | 0.00 | 0.00 | 62 | 944.3 |
| 20260905041226 | 27 | 134 | 6.4 | 12.9 | 0.00 | 0.00 | 0.00 | 61 | 944.3 |
| 20260905040723 | 27 | 130 | 8.0 | 12.9 | 0.00 | 0.00 | 0.00 | 61 | 944.3 |
| 20260905040222 | 27 | 116 | 6.4 | 12.9 | 0.00 | 0.00 | 0.00 | 61 | 944.2 |
| 20260905035720 | 27 | 118 | 4.8 | 9.7 | 0.00 | 0.00 | 0.00 | 61 | 944.2 |
| 20260905035218 | 27 | 115 | 4.8 | 9.7 | 0.00 | 0.00 | 0.00 | 60 | 944.1 |
| 20260905034716 | 27 | 127 | 6.4 | 11.3 | 0.00 | 0.00 | 0.00 | 60 | 944.2 |
| 20260905034216 | 27 | 141 | 6.4 | 12.9 | 0.00 | 0.00 | 0.00 | 60 | 944.2 |
| 20260905033714 | 27 | 124 | 6.4 | 12.9 | 0.00 | 0.00 | 0.00 | 59 | 944.2 |
| 20260905033213 | 27 | 117 | 6.4 | 11.3 | 0.00 | 0.00 | 0.00 | 59 | 944.2 |
| 20260905032714 | 27 | 90 | 6.4 | 12.9 | 0.00 | 0.00 | 0.00 | 59 | 944.2 |
| 20260905032213 | 27 | 119 | 6.4 | 12.9 | 0.00 | 0.00 | 0.00 | 58 | 944.2 |
| 20260905031713 | 28 | 120 | 4.8 | 11.3 | 0.00 | 0.00 | 0.00 | 58 | 944.2 |
| 20260905031214 | 28 | 144 | 4.8 | 11.3 | 0.00 | 0.00 | 0.00 | 58 | 944.2 |
| 20260905030714 | 28 | 134 | 6.4 | 9.7 | 0.00 | 0.00 | 0.00 | 57 | 944.1 |
| 20260905030213 | 28 | 150 | 4.8 | 8.0 | 0.00 | 0.00 | 0.00 | 58 | 944.0 |
| 20260905025713 | 28 | 130 | 3.2 | 8.0 | 0.00 | 0.00 | 0.00 | 57 | 944.0 |
| 20260905025213 | 28 | 169 | 3.2 | 8.0 | 0.00 | 0.00 | 0.00 | 57 | 943.9 |
| 20260905024938 | 28 | 172 | 3.2 | 8.0 | 0.00 | 0.00 | 0.00 | 56 | 943.9 |
| 20260905024214 | 28 | 156 | 3.2 | 8.0 | 0.00 | 0.00 | 0.00 | 55 | 943.7 |
| 20260905023935 | 29 | 152 | 3.2 | 6.4 | 0.00 | 0.00 | 0.00 | 55 | 943.7 |
| 20260905023214 | 29 | 186 | 4.8 | 9.7 | 0.00 | 0.00 | 0.00 | 54 | 943.7 |
| 20260905022713 | 29 | 140 | 6.4 | 12.9 | 0.00 | 0.00 | 0.00 | 54 | 943.7 |
| 20260905022214 | 30 | 158 | 6.4 | 14.5 | 0.00 | 0.00 | 0.00 | 53 | 943.5 |
| 20260905021714 | 30 | 147 | 8.0 | 16.1 | 0.00 | 0.00 | 0.00 | 53 | 943.4 |
| 20260905021212 | 30 | 147 | 9.7 | 17.7 | 0.00 | 0.00 | 0.00 | 53 | 943.3 |
| 20260905020711 | 30 | 180 | 9.7 | 17.7 | 0.00 | 0.00 | 0.00 | 52 | 943.3 |
| 20260905020213 | 30 | 143 | 9.7 | 17.7 | 0.00 | 0.00 | 0.00 | 53 | 943.3 |
| 20260905015712 | 30 | 162 | 9.7 | 20.9 | 0.00 | 0.00 | 0.00 | 52 | 943.2 |
| 20260905015435 | 30 | 148 | 11.3 | 20.9 | 0.00 | 0.00 | 0.00 | 52 | 943.2 |
| 20260905014712 | 30 | 142 | 12.9 | 25.7 | 0.00 | 0.00 | 0.00 | 52 | 943.2 |
| 20260905014211 | 30 | 125 | 12.9 | 25.7 | 0.00 | 0.00 | 0.00 | 51 | 943.1 |
| 20260905013712 | 31 | 127 | 12.9 | 25.7 | 0.00 | 0.00 | 0.00 | 51 | 943.1 |
| 20260905013211 | 31 | 144 | 11.3 | 25.7 | 0.00 | 0.00 | 0.00 | 51 | 943.1 |
| 20260905012711 | 31 | 139 | 9.7 | 20.9 | 0.00 | 0.00 | 0.00 | 52 | 943.0 |
| 20260905012434 | 31 | 155 | 12.9 | 25.7 | 0.00 | 0.00 | 0.00 | 51 | 943.0 |
| 20260905011712 | 31 | 129 | 16.1 | 25.7 | 0.00 | 0.00 | 0.00 | 50 | 942.8 |
| 20260905011444 | 31 | 113 | 12.9 | 24.1 | 0.00 | 0.00 | 0.00 | 50 | 942.8 |
| 20260905010711 | 31 | 119 | 12.9 | 20.9 | 0.00 | 0.00 | 0.00 | 50 | 942.8 |
| 20260905010209 | 31 | 117 | 12.9 | 25.7 | 0.00 | 0.00 | 0.00 | 50 | 942.8 |
| 20260905005708 | 31 | 145 | 12.9 | 25.7 | 0.00 | 0.00 | 0.00 | 49 | 942.9 |
| 20260905005207 | 31 | 142 | 11.3 | 25.7 | 0.00 | 0.00 | 0.00 | 49 | 942.9 |
| 20260905004701 | 31 | 140 | 14.5 | 29.0 | 0.00 | 0.00 | 0.00 | 49 | 942.9 |
| 20260905004419 | 31 | 128 | 14.5 | 29.0 | 0.00 | 0.00 | 0.00 | 49 | 942.9 |
| 20260905003649 | 31 | 155 | 14.5 | 25.7 | 0.00 | 0.00 | 0.00 | 48 | 942.9 |
| 20260905003142 | 32 | 123 | 14.5 | 30.6 | 0.00 | 0.00 | 0.00 | 48 | 942.9 |
| 20260905002637 | 32 | 121 | 14.5 | 30.6 | 0.00 | 0.00 | 0.00 | 48 | 943.0 |
| 20260905002131 | 32 | 169 | 12.9 | 25.7 | 0.00 | 0.00 | 0.00 | 48 | 943.0 |
| 20260905001845 | 32 | 144 | 12.9 | 25.7 | 0.00 | 0.00 | 0.00 | 48 | 943.0 |
| 20260905001118 | 32 | 165 | 12.9 | 25.7 | 0.00 | 0.00 | 0.00 | 47 | 943.0 |
| 20260905000612 | 32 | 144 | 14.5 | 30.6 | 0.00 | 0.00 | 0.00 | 48 | 943.0 |
| 20260905000106 | 33 | 160 | 16.1 | 30.6 | 0.00 | 0.00 | 0.00 | 47 | 943.0 |
| 20260904235600 | 33 | 154 | 17.7 | 33.8 | 0.00 | 0.00 | 0.00 | 47 | 943.0 |
| 20260904235318 | 33 | 142 | 14.5 | 29.0 | 0.00 | 0.00 | 0.00 | 46 | 942.9 |
| 20260904234549 | 33 | 102 | 16.1 | 35.4 | 0.00 | 0.00 | 0.00 | 46 | 942.8 |
| 20260904234043 | 33 | 120 | 17.7 | 35.4 | 0.00 | 0.00 | 0.00 | 46 | 942.9 |
| 20260904233537 | 33 | 121 | 17.7 | 30.6 | 0.00 | 0.00 | 0.00 | 47 | 942.8 |
| 20260904233031 | 33 | 123 | 17.7 | 32.2 | 0.00 | 0.00 | 0.00 | 47 | 942.7 |
| 20260904232524 | 34 | 132 | 17.7 | 32.2 | 0.00 | 0.00 | 0.00 | 47 | 942.6 |
| 20260904232019 | 34 | 146 | 19.3 | 37.0 | 0.00 | 0.00 | 0.00 | 47 | 942.5 |
| 20260904231513 | 35 | 121 | 19.3 | 35.4 | 0.00 | 0.00 | 0.00 | 46 | 942.3 |
| 20260904231006 | 35 | 107 | 19.3 | 33.8 | 0.00 | 0.00 | 0.00 | 46 | 942.1 |
| 20260904230500 | 35 | 164 | 17.7 | 33.8 | 0.00 | 0.00 | 0.00 | 45 | 941.9 |
| 20260904225955 | 35 | 123 | 17.7 | 33.8 | 0.00 | 0.00 | 0.00 | 44 | 941.6 |
| 20260904225449 | 35 | 105 | 16.1 | 33.8 | 0.00 | 0.00 | 0.00 | 44 | 941.5 |
| 20260904224437 | 35 | 104 | 17.7 | 29.0 | 0.00 | 0.00 | 0.00 | 45 | 941.3 |
| 20260904223931 | 35 | 168 | 17.7 | 30.6 | 0.00 | 0.00 | 0.00 | 43 | 941.3 |
| 20260904223425 | 36 | 81 | 17.7 | 30.6 | 0.00 | 0.00 | 0.00 | 42 | 941.4 |
| 20260904223143 | 36 | 98 | 19.3 | 32.2 | 0.00 | 0.00 | 0.00 | 43 | 941.5 |
| 20260904222412 | 36 | 125 | 17.7 | 32.2 | 0.00 | 0.00 | 0.00 | 42 | 941.5 |
| 20260904222127 | 36 | 115 | 16.1 | 30.6 | 0.00 | 0.00 | 0.00 | 43 | 941.7 |
| 20260904221401 | 36 | 148 | 16.1 | 30.6 | 0.00 | 0.00 | 0.00 | 43 | 941.7 |
| 20260904220854 | 36 | 154 | 14.5 | 29.0 | 0.00 | 0.00 | 0.00 | 43 | 941.7 |
| 20260904220348 | 36 | 131 | 12.9 | 24.1 | 0.00 | 0.00 | 0.00 | 44 | 941.7 |
| 20260904215843 | 36 | 107 | 14.5 | 32.2 | 0.00 | 0.00 | 0.00 | 43 | 941.7 |
| 20260904215337 | 36 | 118 | 16.1 | 33.8 | 0.00 | 0.00 | 0.00 | 44 | 941.6 |
| 20260904214325 | 36 | 117 | 14.5 | 30.6 | 0.00 | 0.00 | 0.00 | 43 | 941.7 |
| 20260904213819 | 36 | 116 | 16.1 | 27.4 | 0.00 | 0.00 | 0.00 | 44 | 941.7 |
| 20260904213313 | 36 | 89 | 14.5 | 27.4 | 0.00 | 0.00 | 0.00 | 45 | 941.7 |
| 20260904212807 | 36 | 125 | 14.5 | 27.4 | 0.00 | 0.00 | 0.00 | 44 | 941.8 |
| 20260904212521 | 36 | 118 | 14.5 | 27.4 | 0.00 | 0.00 | 0.00 | 44 | 942.0 |
| 20260904211755 | 36 | 100 | 14.5 | 33.8 | 0.00 | 0.00 | 0.00 | 44 | 941.8 |
| 20260904211505 | 36 | 148 | 12.9 | 32.2 | 0.00 | 0.00 | 0.00 | 46 | 941.9 |
| 20260904210742 | 36 | 128 | 12.9 | 30.6 | 0.00 | 0.00 | 0.00 | 46 | 941.9 |
| 20260904210237 | 36 | 84 | 14.5 | 30.6 | 0.00 | 0.00 | 0.00 | 46 | 942.0 |
| 20260904205731 | 36 | 79 | 12.9 | 24.1 | 0.00 | 0.00 | 0.00 | 46 | 942.1 |
| 20260904205225 | 36 | 146 | 11.3 | 22.5 | 0.00 | 0.00 | 0.00 | 46 | 942.3 |
| 20260904204719 | 35 | 187 | 11.3 | 27.4 | 0.00 | 0.00 | 0.00 | 47 | 942.3 |
| 20260904204434 | 36 | 119 | 12.9 | 27.4 | 0.00 | 0.00 | 0.00 | 47 | 942.3 |
| 20260904203707 | 36 | 133 | 12.9 | 24.1 | 0.00 | 0.00 | 0.00 | 46 | 942.5 |
| 20260904203201 | 36 | 211 | 12.9 | 19.3 | 0.00 | 0.00 | 0.00 | 45 | 942.5 |
| 20260904202655 | 36 | 167 | 12.9 | 20.9 | 0.00 | 0.00 | 0.00 | 46 | 942.7 |
| 20260904201903 | 36 | 144 | 9.7 | 24.1 | 0.00 | 0.00 | 0.00 | 46 | 942.8 |
| 20260904201139 | 36 | 115 | 8.0 | 17.7 | 0.00 | 0.00 | 0.00 | 45 | 942.9 |
| 20260904200638 | 36 | 126 | 8.0 | 22.5 | 0.00 | 0.00 | 0.00 | 46 | 943.0 |
| 20260904200139 | 36 | 169 | 8.0 | 22.5 | 0.00 | 0.00 | 0.00 | 46 | 943.0 |
| 20260904195639 | 36 | 164 | 9.7 | 19.3 | 0.00 | 0.00 | 0.00 | 46 | 943.1 |
| 20260904195139 | 35 | 184 | 11.3 | 25.7 | 0.00 | 0.00 | 0.00 | 45 | 943.1 |
| 20260904194638 | 35 | 193 | 11.3 | 25.7 | 0.00 | 0.00 | 0.00 | 48 | 943.2 |